sat.trackr.live / text

‹ back to catalog

ARICA-2

NORAD 68796 · 2026-088E

PAYLOAD ACTIVE UNKNOWN

§ Identity

Operator
Country
JPN
Launch date
2026-04-23
Launch site
RLLB
Launch vehicle
Mass (kg)
RCS (m²)

External: N2YO · Heavens-Above · Gunter

§ Orbital elements

Epoch: 2026-05-25T03:23:21.774336Z

Period
95.48 min
Inclination
97.5038°
Eccentricity
0.0016639
Mean motion
15.08201458 rev/d
Perigee alt
530.2 km
Apogee alt
553.2 km
Semi-major
6,919.8 km
B*
2.7379e-4
RAAN
295.0600°
Arg perigee
152.7668°
Mean anomaly
207.4437°
Rev number
482

§ Raw data

ARICA-21 68796U 26088E   26145.14122424  .00004186  00000+0  27379-3 0  99972 68796  97.5038 295.0600 0016639 152.7668 207.4437 15.08201458  4827

JSON: /api/v1/satellites/68796 · /tle

For live sub-satellite position, see the globe view (requires WebGL).

§ Visibility from observer

Set your observer location to see the next 7 days of passes ≥ 10°. The values pass through the URL so the page stays shareable.

No JS? Fill the form by hand. The geolocation button needs JavaScript.